ホームページへジャンプ


OAA彗星課報告<2006年11月5日号>

23P/Brorsen-Metcalfの軌道 (村岡健治氏)

 23P/Brorsen-Metcalfは、ブライアン・G・マースデン博士のコメットカタログ2005の軌道を見てもわかるように、1989年の検出時に改良された軌道で、最終的な計算はされていません。
 23Pは、12年ぶりに再計算してみました。当時、23Pの1847年−1919年−1989年をつなぐ軌道は何度やっても上手く軌道改良(そこそこしか)ができませんでしたが、今回は収束値(?)を得ることができました。1847年、1919年、1989年、1847年−1919年、1919年−1989年の軌道を計算して、観測精度と残差傾向を確かめて軌道を改良しました。
 1847年−1919年の軌道(摂動のみ)からだと、1989年のTは、1989年9月27.6日で、ΔT = -15.7日と非重力運動が結構あることがわかります。
 1847年の観測値は、ウエイトを0.5としています(1919年−1989年は1.0)。1700年代の出現(近日点通過)は、1775年7月20.3日頃、1703年11月4.6日頃となり、次回帰は、2059年6月8.7日頃となります。
(村岡健治)

 Comet 23P/Brorsen-Metcalf ( P/1847 O1 = 1919 Q1 = 1989 N1 )
 
   The following improved orbital elements  by Kenji Muraoka, 
  are from 253 observations  1847 July 22  to  1989 Sept. 15,
  including 8 Planets, Moon and 3 minor planets perturbations 
  and non-gravitational effect of style II.  
   The weighting mean residual is +/- 2.15 arc seconds.

      Epoch  =  1989 Oct.  1.0  TT       JDT = 2447800.5
          T  =  1989 Sept. 11.93736       +/- 0.00004 (m.e.) TT
       Peri. =  129.61064                +/- 0.00034
       Node  =  311.58524                +/- 0.00020   (2000.0)
       Incl. =   19.33414                +/- 0.00009
          q  =    0.4787459              +/- 0.0000010 AU
          e  =    0.9719486              +/- 0.0000002
          a  =   17.0667582              +/- 0.0000075 AU
          n゜ =    0.01397905             +/- 0.00000001
          P  =   70.506                  +/- 0.0000464 years
         A1  =   +0.354                  +/- 0.022
         A2  =   -0.05317                +/- 0.00001

          T  =  1919 Oct. 17.36310  TT    Epoch  =  1919 Oct.  9.0  TT
       Peri. =  129.46151                     e  =    0.9719511
       Node  =  311.90776    (2000.0)         a  =   17.2867904 AU
       Incl. =   19.22120                     n゜ =    0.013713002
          q  =    0.4848754 AU                P  =   71.874 years

          T  =  1847 Sept.10.04717  TT    Epoch  =  1847 Sept.16.0  TT
       Peri. =  129.34576                     e  =    0.9720793
       Node  =  311.97350    (2000.0)         a  =   17.4754727 AU
       Incl. =   19.14917                     n゜ =    0.013491514
          q  =    0.4879278 AU                P  =   73.054 years

